STARLINK-34772, 65020

Orbit data source: Space-Track

STARLINK-34772, 65020 is a payload satellite owned by SpaceX/Seattle (US) in LEO that was launched on Wed, 30 Jul 2025 UTC via an FALCON 9 launch vehicle from the Air Force Eastern Test Range (AFETR). Payload-class satellites include a variety of spacecraft equipped with specific instruments for various scientific and technological missions. These include communications satellites like Starlink; space stations such as the ISS; scientific satellites like the Hubble; Earth observation satellites from companies like Planet Labs, Umbra, and HawkEye 360; GPS; miniature CubeSats for education and research; and military/defense satellites.

Loading next visibility...
Identifier
65020, 2025-161F
Orbit
LEO
Country
Flag of USUS
Related business
Manufacturer
SpaceX/Seattle
Mission
Operational Commercial Communications
Bus & Motor
STARLINK V2MO, Unknown motor
Mass
575 kg wet, ~530 kg dry
Launch date (UTC)
2025-07-30 (4 months ago)
Launch vehicle
FALCON 9
Launch site
Air Force Eastern Test Range (AFETR)
Object type
Payload
Rocket body
Debris
Shape & HBR
Box + 2 Pan, 17.7 m
Radar Cross Section
36.964 m², Large (>1 m²)

Expand to show TLE details & history
Last TLE update: 14 hours ago

TLE from 14 hours ago
0 STARLINK-34772
1 65020U 25161F   25342.46504294  .00032411  00000-0  11016-2 0  9990
2 65020  53.1588 357.8830 0001091  91.8451 268.2675 15.30203101 21474
Epoch: 2025-12-08T11:09Z
TLE epoch observation values (Epoch: 2025-12-08T11:09:39.710Z)
Latitude
0.00003°
Longitude
113.00387°
Altitude
476.128 km
Speed
7.629 km/s
True Right ascension
23h 51m 31s
True Declination
0° 00' 00"
Sunlit
Object was in daylight at epoch
Visualization orbit readout
Latitude
Unknown
Longitude
Unknown
Altitude
Unknown
Speed
Unknown
Apparent Right ascension
Unknown
Apparent Declination
Unknown
Sunlit
N/A
Visualization observer readout
Local Sidereal Time
23:16:34
Azimuth
Unknown
Elevation
Unknown
Doppler factor
Unknown
Orbital elements
Apogee altitude
476.21 km
Perigee altitude
474.715 km
Semi-major axis
6,853.599 km
Eccentricity
0.00011
Inclination
53.1588°
RAAN
357.883°
Arg. of periapsis
91.8451°
True anomaly
268.255°
Mean anomaly
268.2675°
Eccentric anomaly
268.26125°
Mean motion
3.8253 °/min
Orbital period
94.11 mins
BSTAR
0.0011016
Loading maneuver chart data...
Computing Atmospheric mass density...
Loading historical data...
Loading historical data...
Loading historical data...
Loading historical data...
Loading historical data...
Loading historical data...
Loading historical data...

Documentation

Showing up to 5 results
|